Vorticity
nan nan nan nan nan nan nan nan nan nan nan nan nan nan nan nan nan nan nan nan nan nan nan nan nan nan nan nan nan nan nan nan nan nan nan nan nan nan nan nan nan nan nan nan
nan 7 6 4 4 4 4 9 2 7 22 5 9 15 19 7 8 7 8 9 7 3 10 9 7 9 6 6 5 8 8 5 6 6 7 9 9 11 9 8 7 7 5 nan
nan 6 5 4 6 7 9 8 8 -0 5 1 22 26 19 8 8 9 10 7 9 6 6 7 8 8 7 7 5 7 7 5 7 6 5 7 8 9 8 9 8 8 6 nan
nan 11 11 6 5 7 11 5 -0 2 3 10 5 19 16 12 8 8 8 8 10 6 4 5 9 8 6 6 5 5 8 7 6 7 6 8 7 6 7 9 10 8 7 nan
nan 9 9 7 8 5 5 5 7 10 -0 7 2 11 19 16 7 10 8 8 7 12 8 5 5 6 7 7 7 5 5 7 7 7 7 7 7 5 9 12 10 7 9 nan
nan 9 9 8 8 6 7 11 8 13 12 12 10 9 20 23 12 10 10 8 6 10 13 6 5 6 8 8 7 7 6 5 7 7 8 9 7 5 7 10 7 7 9 nan
nan 9 7 16 13 10 8 8 11 11 15 12 12 5 12 22 25 11 9 14 10 8 8 9 7 6 7 7 8 8 6 5 7 7 8 8 7 9 7 8 8 7 9 nan
nan 12 11 9 12 10 7 9 7 8 4 6 13 12 15 15 14 5 5 10 12 9 7 11 8 6 7 7 9 8 7 6 4 5 8 8 8 7 9 7 7 7 9 nan
nan 10 11 7 6 7 10 10 8 6 3 9 6 5 11 13 10 3 6 10 15 13 9 10 9 6 8 8 8 9 8 7 7 4 5 8 9 8 8 7 6 7 8 nan
nan 8 11 13 12 9 10 6 7 12 15 7 10 9 10 14 3 6 6 7 19 20 9 10 9 8 8 8 9 11 9 8 7 7 4 6 8 8 7 8 9 8 8 nan
nan 9 5 9 12 13 3 8 8 9 11 10 7 9 17 13 9 13 14 21 22 13 10 9 11 11 10 8 8 9 10 8 7 8 8 6 6 8 7 6 8 10 10 nan
nan 20 23 9 4 13 16 7 10 3 6 10 8 9 15 13 11 10 7 27 31 9 11 9 12 12 10 7 7 8 10 8 8 8 8 9 9 8 7 6 7 9 9 nan
nan 13 13 15 18 18 20 12 3 7 10 8 5 10 6 7 11 12 -2 10 35 17 11 9 10 11 9 8 7 7 9 10 8 8 8 8 8 9 8 8 7 8 9 nan
nan 10 7 6 6 8 17 20 6 3 1 9 5 14 10 7 2 3 5 29 33 10 10 8 10 10 8 9 9 8 7 10 10 8 8 8 9 8 8 9 8 8 9 nan
nan 10 6 5 6 5 7 22 18 1 6 6 9 15 14 13 4 6 2 21 20 13 12 8 10 12 9 9 10 10 9 10 11 8 8 8 9 9 9 9 9 9 8 nan
nan 14 9 17 18 11 12 13 24 20 2 8 7 10 16 5 9 13 12 8 18 16 11 9 10 12 9 9 10 10 9 10 11 9 8 8 10 10 8 8 9 10 9 nan
nan 8 16 14 10 15 19 16 9 20 16 5 14 15 7 5 9 1 5 15 19 13 12 10 11 10 8 9 10 10 10 9 10 9 9 9 9 9 9 8 9 9 8 nan
nan 11 12 7 11 15 4 6 14 24 21 2 15 20 10 8 11 7 -1 10 8 13 14 8 8 12 11 9 10 11 12 10 9 10 9 9 10 8 9 9 8 9 9 nan
nan 6 12 13 7 6 12 12 9 14 19 23 21 6 9 4 6 10 7 12 15 14 13 12 10 10 11 9 11 11 10 12 8 10 10 9 9 9 8 9 8 8 10 nan
nan 9 5 3 12 12 7 3 9 21 3 -0 28 28 13 5 7 15 8 4 10 19 15 12 12 11 8 9 8 10 10 8 9 9 11 11 10 9 9 10 9 7 9 nan
nan 11 8 8 8 0 3 18 26 12 3 5 7 24 19 9 12 11 15 10 5 14 23 16 10 10 7 9 10 6 8 8 8 7 11 12 13 10 10 10 11 10 9 nan
nan 8 10 11 10 5 10 23 19 7 8 10 7 13 14 13 18 18 10 5 6 15 30 18 8 10 12 10 9 9 5 10 9 9 8 10 10 10 12 12 10 11 11 nan
nan 11 7 8 8 7 13 12 6 11 10 8 8 10 12 12 13 15 15 13 5 5 11 24 25 10 10 13 9 8 10 11 11 10 8 9 10 10 9 10 8 10 11 nan
nan 17 11 0 6 9 8 7 10 10 12 10 10 9 12 14 9 12 11 8 7 13 10 11 19 21 14 14 12 7 11 11 12 11 10 10 11 11 9 9 11 9 9 nan
nan 7 21 9 -0 6 3 12 12 13 12 9 11 10 10 13 10 13 14 10 13 8 7 8 11 17 18 18 11 9 11 13 10 9 10 10 11 12 10 9 12 16 11 nan
nan nan nan nan nan nan nan nan nan nan nan nan nan nan nan nan nan nan nan nan nan nan nan nan nan nan nan nan nan nan nan nan nan nan nan nan nan nan nan nan nan nan nan nan
CAPE
0 0 0 0 0 0 18 161 137 1 0 0 0 237 0 247 178 195 227 145 9 0 0 0 0 0 106 0 0 2 1447 1280 779 782 1095 1191 830 461 897 727 764 1271 1143 990
0 0 0 0 0 0 0 44 27 2 5 0 0 79 0 229 219 210 228 122 64 52 75 11 68 0 35 6 0 295 1073 1256 846 720 868 1232 1590 1053 949 677 501 975 1017 942
0 0 0 0 0 0 0 0 7 5 1 0 0 0 285 400 305 256 260 247 163 118 169 153 199 4 4 17 44 595 996 1077 1432 1215 1253 1391 1410 959 300 419 708 749 779 953
0 0 0 0 0 0 0 0 0 0 0 8 19 30 705 618 453 378 313 303 226 236 203 153 237 80 0 190 58 592 1315 1260 1462 1482 1278 959 1087 549 276 274 733 1067 907 1038
0 0 0 0 0 0 0 0 0 3 1 4 18 38 712 770 620 384 293 285 298 323 279 205 171 240 2 291 173 319 1135 1546 1060 1199 1385 1192 873 1001 1113 1271 1154 1092 928 1338
0 0 0 0 0 0 0 0 0 0 0 0 5 0 68 935 829 564 397 342 255 228 434 328 221 342 159 449 297 259 889 1386 968 994 1397 1518 901 928 955 1188 1126 925 1111 1570
0 0 0 0 0 0 0 0 0 0 0 0 23 7 171 456 823 759 713 435 317 174 390 440 423 503 232 373 450 404 513 1215 1282 985 1132 1271 1297 1273 752 1247 1067 731 1243 1930
0 0 0 0 0 0 0 0 0 0 0 0 130 129 428 242 180 566 420 126 411 242 186 553 463 538 327 248 404 662 530 674 843 1335 822 930 955 1030 1553 1766 1313 1387 1678 2387
0 0 0 0 0 0 0 0 0 0 0 0 264 109 145 16 77 85 24 42 297 294 181 441 531 540 431 277 377 557 681 748 829 625 842 765 779 970 1070 987 1146 1480 1445 1719
0 0 0 0 0 0 0 0 0 0 0 0 186 115 34 94 1 0 8 11 21 378 224 611 576 636 493 362 443 340 924 853 953 543 504 700 1045 994 987 811 1160 1584 1189 1535
0 0 0 0 0 0 0 0 0 0 0 0 25 34 91 64 108 65 11 2 35 240 142 570 638 820 609 634 672 588 818 922 952 831 662 469 722 1238 963 1192 1563 2378 1920 2197
0 0 0 0 0 0 0 0 0 0 0 0 0 81 34 8 43 6 0 60 64 44 66 229 638 829 800 680 654 773 665 816 844 743 779 1237 1341 1237 1258 1014 1163 1708 2303 2212
0 0 0 0 0 0 0 0 0 0 0 0 0 0 22 4 0 23 3 2 131 36 29 236 496 700 745 687 651 760 727 721 927 1139 1351 1539 1669 1464 1250 1299 1443 1843 2059 2305
0 0 0 0 0 0 0 0 0 0 0 0 0 8 41 8 6 2 95 145 322 51 41 208 657 681 648 633 568 623 576 1118 1116 1422 1520 1655 1558 1499 1345 1420 1666 1920 2318 2335
0 0 0 0 0 0 0 0 0 0 0 0 0 27 14 18 13 89 191 249 384 66 34 132 604 777 723 716 651 624 632 1040 1296 1501 1533 1724 1431 1579 1529 1574 1808 2005 2262 2445
0 0 0 0 0 0 0 0 0 0 0 0 0 121 46 0 0 3 679 132 455 208 35 152 538 729 704 828 816 870 830 1032 1405 1486 1573 1509 1755 1519 1638 1704 1789 2302 2230 2389
0 0 0 0 0 0 0 0 0 0 0 0 0 92 119 35 96 181 72 193 303 438 183 220 741 708 713 908 880 991 987 999 1371 1519 1599 1633 1711 1794 1772 1817 2012 2198 2464 2229
0 0 0 0 0 0 0 0 0 0 0 0 0 202 93 65 25 92 137 149 6 501 430 258 723 742 684 747 1019 958 1165 1064 1245 1448 1580 1703 1809 1871 1998 1964 2105 2071 2371 2376
0 0 0 0 0 0 0 0 0 0 0 0 0 293 107 28 67 74 47 39 144 388 432 447 779 788 814 755 999 1057 1297 1120 1223 1329 1576 1719 1955 2061 2021 2163 2043 2496 2302 2603
0 0 0 0 0 0 0 2 22 3 169 353 417 135 169 71 26 8 1 141 26 299 446 553 803 954 953 834 1068 1303 1054 1418 1092 1209 1574 1708 1965 2135 2253 2188 2307 2378 2591 2743
0 0 0 0 0 0 110 283 375 89 387 277 192 159 139 125 15 42 40 69 0 0 629 759 725 1108 1090 1162 1115 1137 1326 1235 1270 1213 1234 1904 2010 2128 2422 2414 2469 2423 2794 2879
0 0 0 0 0 0 203 224 289 161 146 93 190 198 140 249 22 1 0 0 0 5 730 808 748 876 1163 1369 1426 1138 1174 1348 1269 1203 1585 1591 2299 2386 2595 2654 2719 2676 2900 2756
0 0 0 0 0 220 7 43 10 0 41 151 226 323 450 507 142 418 264 0 0 621 425 549 785 806 1247 1468 1504 1586 1428 1122 1579 1716 1645 1995 2155 2625 2630 2834 2899 3024 2925 2193
77 29 3 0 170 172 2 0 1 0 110 260 328 577 767 629 825 817 216 392 684 873 847 539 979 912 1494 1805 1560 1554 1728 1728 1678 2071 2109 2103 2641 2811 2785 2969 3013 3277 2569 1700
48 154 86 175 76 149 23 0 1 36 206 285 438 635 839 1114 1716 1927 897 966 832 771 682 860 572 1202 2528 2439 2018 1770 2050 2664 2478 2175 2486 2809 2892 2674 3094 3096 3282 3265 2350 1752
134 45 43 70 2 0 1 71 90 98 304 121 121 193 519 600 563 1339 1891 2046 1790 1162 1091 1167 1172 729 1061 3082 3007 2640 3010 3235 3175 3242 2798 2930 3151 3065 3218 3161 1030 0 1576 781